+ View the NASA Portal
+ Center for Near-Earth Object Studies
IMPORTANT:
The SSD Announcement email list is now available. Major changes are coming in the near future, including possible hostname and/or URL changes. To be notified of such changes, subscribe to this email list.
Please visit
this page
for more details.
Don't show this message again
JPL Small-Body Database Browser
Search:
[
help
]
266954 (2010 UK36)
Classification:
Main-belt Asteroid
SPK-ID:
2266954
[
Ephemeris
|
Orbit Diagram
|
Orbital Elements
|
Mission Design
|
Physical Parameters
|
Discovery Circumstances
]
[ show orbit diagram ]
Orbital Elements at Epoch 2458600.5 (2019-Apr-27.0) TDB
Reference:
JPL 11
(heliocentric ecliptic J2000)
Element
Value
Uncertainty (1-sigma)
Units
e
.153822377327948
5.8365e-08
a
2.686534191139659
3.6115e-08
au
q
2.273285115085741
1.6697e-07
au
i
4.734044250908501
1.2503e-05
deg
node
345.1855930223132
7.5163e-05
deg
peri
64.78284582477224
9.0386e-05
deg
M
339.5118793807603
4.9081e-05
deg
t
p
2458692.034877907754
(2019-Jul-27.53487791)
0.00022032
TDB
period
1608.37378201722
4.40
3.2432e-05
8.879e-08
d
yr
n
.2238285677278876
4.5134e-09
deg/d
Q
3.099783267193577
4.167e-08
au
Orbit Determination Parameters
# obs. used (total)
116
data-arc span
4728 days (12.94 yr)
first obs. used
2005-08-28
last obs. used
2018-08-08
planetary ephem.
DE431
SB-pert. ephem.
SB431-N16
condition code
0
norm. resid. RMS
.63909
source
ORB
producer
Otto Matic
solution date
2019-Jul-14 13:48:20
Additional Information
Earth MOID
= 1.28786 au
Jupiter MOID
= 2.2941 au
T_jup
= 3.352
[ show covariance matrix ]
[
Ephemeris
|
Orbit Diagram
|
Orbital Elements
|
Mission Design
|
Physical Parameters
|
Discovery Circumstances
]
Physical Parameter Table
Parameter
Symbol
Value
Units
Sigma
Reference
Notes
absolute magnitude
H
17.2
n/a
MPO454984
266954 (2010 UK36)
Discovered 2005-Aug-28 by Spacewatch at Kitt Peak
Reference:
20110218/Numbers.arc
Last Updated:
2011-02-22
Alternate Designations
2010 UK36
= 2005 QG80
[
Ephemeris
|
Orbit Diagram
|
Orbital Elements
|
Mission Design
|
Physical Parameters
|
Discovery Circumstances
]
2019-Dec-12 14:12 UT
(server date/time)
Site Manager:
Ryan S. Park
Webmaster
:
Alan B. Chamberlin